,,Stat6,,Stat2,,Stat8,,Stat9,,Stat10,,Wind1,,Wind1,
time,status,PA1M_AVG,status,PR1M_SUM,status,RH1M_AVG,status,SR1M_AVG,status,TA1M_AVG,status,W1dAve1m,status,W1sAve1m,
2005-01-25, 00:00:01,VALID,918.749,VALID,0,VALID,97.2434,VALID,0,VALID,20.8132,VALID,2,VALID,0,
2005-01-25, 00:01:01,VALID,918.745,VALID,0,VALID,97.4265,VALID,-0.0169808,VALID,20.8043,VALID,2,VALID,0.00639205,
2005-01-25, 00:02:01,VALID,918.733,VALID,0,VALID,97.5219,VALID,-0.0339617,VALID,20.7979,VALID,2,VALID,0.137835,
2005-01-25, 00:03:01,VALID,918.728,VALID,0,VALID,97.6351,VALID,-0.0339617,VALID,20.7946,VALID,2,VALID,0.148438,
2005-01-25, 00:04:01,VALID,918.732,VALID,0,VALID,97.6134,VALID,-0.0169808,VALID,20.7882,VALID,2,VALID,0.0753997,
2005-01-25, 00:05:01,VALID,918.725,VALID,0,VALID,97.7152,VALID,0,VALID,20.772,VALID,2,VALID,0.0351563,
2005-01-25, 00:06:01,VALID,918.714,VALID,0,VALID,97.7012,VALID,-0.0169808,VALID,20.7715,VALID,2,VALID,0.275746,
2005-01-25, 00:07:01,VALID,918.712,VALID,0,VALID,97.7724,VALID,-0.0169808,VALID,20.7691,VALID,2,VALID,0.271257,
2005-01-25, 00:08:01,VALID,918.692,VALID,0,VALID,97.8258,VALID,-0.0509425,VALID,20.7658,VALID,2,VALID,0.370994,
2005-01-25, 00:09:01,VALID,918.674,VALID,0,VALID,97.7457,VALID,-0.0169808,VALID,20.7392,VALID,2,VALID,0.388951,
2005-01-25, 00:10:01,VALID,918.66,VALID,0,VALID,97.6847,VALID,-0.0509425,VALID,20.6975,VALID,2,VALID,0.543636,
2005-01-25, 00:11:01,VALID,918.636,VALID,0,VALID,98.0089,VALID,-0.0339617,VALID,20.6721,VALID,12,VALID,0.637109,
2005-01-25, 00:12:00,VALID,918.64,VALID,0,VALID,98.2022,VALID,-0.0509425,VALID,20.656,VALID,13,VALID,0.469494,
2005-01-25, 00:13:00,VALID,918.638,VALID,0,VALID,98.2391,VALID,-0.0169808,VALID,20.6334,VALID,13,VALID,0.578926,
2005-01-25, 00:14:00,VALID,918.635,VALID,0,VALID,98.323,VALID,-0.0509425,VALID,20.6137,VALID,24,VALID,0.679688,
2005-01-25, 00:15:00,VALID,918.635,VALID,0,VALID,98.2353,VALID,-0.0339617,VALID,20.568,VALID,40,VALID,0.916667,
2005-01-25, 00:16:00,VALID,918.635,VALID,0,VALID,98.2302,VALID,-0.0169808,VALID,20.5524,VALID,44,VALID,1.0013,
2005-01-25, 00:17:00,VALID,918.637,VALID,0,VALID,98.2416,VALID,-0.0509425,VALID,20.523,VALID,46,VALID,0.855469,
2005-01-25, 00:18:00,VALID,918.628,VALID,0,VALID,98.2505,VALID,-0.0339617,VALID,20.5039,VALID,46,VALID,0.45206,
2005-01-25, 00:19:00,VALID,918.63,VALID,0,VALID,98.2365,VALID,0,VALID,20.488,VALID,46,VALID,0.471227,
2005-01-25, 00:20:00,VALID,918.636,VALID,0,VALID,98.159,VALID,-0.0339617,VALID,20.4818,VALID,46,VALID,0.45191,
2005-01-25, 00:21:00,VALID,918.635,VALID,0,VALID,97.8373,VALID,0,VALID,20.4582,VALID,65,VALID,0.606957,
2005-01-25, 00:22:00,VALID,918.639,VALID,0,VALID,97.6351,VALID,-0.0169808,VALID,20.442,VALID,73,VALID,0.283736,
2005-01-25, 00:23:00,VALID,918.617,VALID,0,VALID,97.6351,VALID,0,VALID,20.4552,VALID,73,VALID,0.0999645,
2005-01-25, 00:24:00,VALID,918.631,VALID,0,VALID,97.677,VALID,0,VALID,20.4684,VALID,73,VALID,0,
2005-01-25, 00:25:00,VALID,918.623,VALID,0,VALID,97.6198,VALID,-0.0169808,VALID,20.491,VALID,73,VALID,0,
2005-01-25, 00:26:00,VALID,918.618,VALID,0,VALID,97.5956,VALID,-0.0169808,VALID,20.4969,VALID,73,VALID,0,
2005-01-25, 00:27:00,VALID,918.605,VALID,0,VALID,97.7482,VALID,-0.0169808,VALID,20.5268,VALID,73,VALID,0.316497,
2005-01-25, 00:28:00,VALID,918.611,VALID,0,VALID,97.5715,VALID,0,VALID,20.5327,VALID,73,VALID,0.173611,
2005-01-25, 00:29:00,VALID,918.598,VALID,0,VALID,97.5448,VALID,-0.0169808,VALID,20.5432,VALID,73,VALID,0.184261,
2005-01-25, 00:30:00,VALID,918.581,VALID,0,VALID,97.4583,VALID,-0.0509425,VALID,20.5327,VALID,73,VALID,0.25,
2005-01-25, 00:31:00,VALID,918.595,VALID,0,VALID,97.5066,VALID,-0.0169808,VALID,20.5429,VALID,73,VALID,0.34096,
2005-01-25, 00:32:00,VALID,918.593,VALID,0,VALID,97.6389,VALID,0,VALID,20.5561,VALID,73,VALID,0.357118,
2005-01-25, 00:33:00,VALID,918.584,VALID,0,VALID,97.7749,VALID,0.0169808,VALID,20.5553,VALID,73,VALID,0.314063,
2005-01-25, 00:34:00,VALID,918.574,VALID,0,VALID,97.8373,VALID,0,VALID,20.5588,VALID,73,VALID,0.303299,
2005-01-25, 00:35:00,VALID,918.572,VALID,0,VALID,97.7966,VALID,0,VALID,20.5489,VALID,73,VALID,0.301448,
2005-01-25, 00:36:00,VALID,918.574,VALID,0,VALID,97.8894,VALID,0,VALID,20.5395,VALID,73,VALID,0.226935,
2005-01-25, 00:37:00,VALID,918.571,VALID,0,VALID,97.8398,VALID,-0.0339617,VALID,20.5362,VALID,73,VALID,0.372569,
2005-01-25, 00:38:00,VALID,918.568,VALID,0,VALID,97.7254,VALID,-0.0509425,VALID,20.527,VALID,73,VALID,0.287348,
2005-01-25, 00:39:00,VALID,918.539,VALID,0,VALID,97.3362,VALID,-0.0339617,VALID,20.5007,VALID,73,VALID,0.520064,
2005-01-25, 00:40:00,VALID,918.53,VALID,0,VALID,96.9446,VALID,-0.0169808,VALID,20.4619,VALID,73,VALID,0.497396,
2005-01-25, 00:41:00,VALID,918.499,VALID,0,VALID,96.8797,VALID,0,VALID,20.4522,VALID,88,VALID,0.654474,
2005-01-25, 00:42:00,VALID,918.484,VALID,0,VALID,96.4805,VALID,-0.0169808,VALID,20.4261,VALID,93,VALID,0.694247,
2005-01-25, 00:43:00,VALID,918.46,VALID,0,VALID,96.3215,VALID,-0.0339617,VALID,20.446,VALID,89,VALID,0.444336,
2005-01-25, 00:44:00,VALID,918.458,VALID,0,VALID,96.4194,VALID,-0.0169808,VALID,20.4679,VALID,90,VALID,0.36849,
2005-01-25, 00:45:00,VALID,918.437,VALID,0,VALID,96.6089,VALID,-0.0169808,VALID,20.4945,VALID,90,VALID,0.230015,
2005-01-25, 00:46:00,VALID,918.412,VALID,0,VALID,96.4665,VALID,-0.0339617,VALID,20.5042,VALID,90,VALID,0.204055,
2005-01-25, 00:47:00,VALID,918.387,VALID,0,VALID,96.4398,VALID,0,VALID,20.5044,VALID,90,VALID,0.154204,
2005-01-25, 00:48:00,VALID,918.39,VALID,0,VALID,96.6979,VALID,0,VALID,20.5039,VALID,90,VALID,0.031808,
2005-01-25, 00:49:00,VALID,918.391,VALID,0,VALID,96.6712,VALID,0,VALID,20.5037,VALID,90,VALID,0,
2005-01-25, 00:50:00,VALID,918.374,VALID,0,VALID,96.7577,VALID,-0.0679233,VALID,20.5047,VALID,90,VALID,0,
2005-01-25, 00:51:00,VALID,918.373,VALID,0,VALID,97.0234,VALID,-0.0339617,VALID,20.5072,VALID,90,VALID,0,
2005-01-25, 00:52:00,VALID,918.387,VALID,0,VALID,96.9433,VALID,-0.0509425,VALID,20.5303,VALID,90,VALID,0,
2005-01-25, 00:53:00,VALID,918.387,VALID,0,VALID,96.9319,VALID,-0.0679233,VALID,20.53,VALID,90,VALID,0.116279,
2005-01-25, 00:54:00,VALID,918.37,VALID,0,VALID,96.7373,VALID,-0.0679233,VALID,20.5236,VALID,90,VALID,0.325707,
2005-01-25, 00:55:00,VALID,918.354,VALID,0,VALID,96.0519,VALID,-0.0509425,VALID,20.5141,VALID,90,VALID,0.223899,
2005-01-25, 00:56:00,VALID,918.336,VALID,0,VALID,95.5013,VALID,-0.0339617,VALID,20.4977,VALID,90,VALID,0.0952035,
2005-01-25, 00:57:00,VALID,918.325,VALID,0,VALID,95.8739,VALID,-0.0339617,VALID,20.5037,VALID,90,VALID,0.000372024,
2005-01-25, 00:58:00,VALID,918.306,VALID,0,VALID,95.7595,VALID,-0.0339617,VALID,20.5206,VALID,90,VALID,0.247332,
2005-01-25, 00:59:00,VALID,918.286,VALID,0,VALID,95.1351,VALID,-0.0169808,VALID,20.491,VALID,90,VALID,0.385476,
2005-01-25, 01:00:00,VALID,918.271,VALID,0,VALID,95.7849,VALID,-0.0339617,VALID,20.488,VALID,90,VALID,0.273793,
2005-01-25, 01:01:00,VALID,918.252,VALID,0,VALID,96.3927,VALID,-0.0509425,VALID,20.4975,VALID,90,VALID,0.295387,
2005-01-25, 01:02:00,VALID,918.241,VALID,0,VALID,96.1486,VALID,-0.0339617,VALID,20.4977,VALID,90,VALID,0.460392,
2005-01-25, 01:03:00,VALID,918.219,VALID,0,VALID,96.0049,VALID,-0.101885,VALID,20.4721,VALID,92,VALID,0.574751,
2005-01-25, 01:04:00,VALID,918.199,VALID,0,VALID,95.4199,VALID,-0.0169808,VALID,20.4264,VALID,96,VALID,0.612995,
2005-01-25, 01:05:00,VALID,918.172,VALID,0,VALID,94.8642,VALID,-0.0509425,VALID,20.4242,VALID,102,VALID,0.678571,
2005-01-25, 01:06:00,VALID,918.172,VALID,0,VALID,95.1618,VALID,-0.0169808,VALID,20.4269,VALID,102,VALID,0.570503,
2005-01-25, 01:07:00,VALID,918.157,VALID,0,VALID,94.7663,VALID,-0.0339617,VALID,20.417,VALID,102,VALID,0.550071,
2005-01-25, 01:08:00,VALID,918.152,VALID,0,VALID,94.573,VALID,-0.0339617,VALID,20.417,VALID,102,VALID,0.294744,
2005-01-25, 01:09:00,VALID,918.147,VALID,0,VALID,94.6455,VALID,-0.0679233,VALID,20.4205,VALID,102,VALID,0.451126,
2005-01-25, 01:10:00,VALID,918.146,VALID,0,VALID,94.8426,VALID,-0.0679233,VALID,20.4334,VALID,102,VALID,0.258539,
2005-01-25, 01:11:00,VALID,918.145,VALID,0,VALID,95.2864,VALID,-0.0339617,VALID,20.4458,VALID,102,VALID,0.272461,
2005-01-25, 01:12:00,VALID,918.14,VALID,0,VALID,95.5738,VALID,-0.0849042,VALID,20.4697,VALID,107,VALID,0.435454,
2005-01-25, 01:13:00,VALID,918.116,VALID,0,VALID,95.6857,VALID,-0.0849042,VALID,20.4592,VALID,118,VALID,0.530208,
2005-01-25, 01:14:00,VALID,918.107,VALID,0,VALID,95.6692,VALID,-0.0849042,VALID,20.453,VALID,119,VALID,0.349019,
2005-01-25, 01:15:00,VALID,918.098,VALID,0,VALID,96.0341,VALID,-0.0849042,VALID,20.4562,VALID,119,VALID,0.207961,
2005-01-25, 01:16:00,VALID,918.107,VALID,0,VALID,96.1524,VALID,-0.101885,VALID,20.4627,VALID,119,VALID,0.202592,
2005-01-25, 01:17:00,VALID,918.109,VALID,0,VALID,96.1486,VALID,-0.0849042,VALID,20.4528,VALID,119,VALID,0.268229,
2005-01-25, 01:18:00,VALID,918.103,VALID,0,VALID,96.1626,VALID,-0.0509425,VALID,20.4562,VALID,119,VALID,0.00362043,
2005-01-25, 01:19:00,VALID,918.123,VALID,0,VALID,95.8688,VALID,-0.0679233,VALID,20.4458,VALID,119,VALID,0.0628811,
2005-01-25, 01:20:00,VALID,918.128,VALID,0,VALID,95.4937,VALID,0.0339617,VALID,20.4388,VALID,119,VALID,0.219131,
2005-01-25, 01:21:00,VALID,918.131,VALID,0,VALID,94.5222,VALID,0.0679233,VALID,20.399,VALID,119,VALID,0.456321,
2005-01-25, 01:22:00,VALID,918.136,VALID,0,VALID,94.1254,VALID,0.0169808,VALID,20.396,VALID,119,VALID,0.343945,
2005-01-25, 01:23:00,VALID,918.129,VALID,0,VALID,93.6448,VALID,0,VALID,20.407,VALID,120,VALID,0.405078,
2005-01-25, 01:24:00,VALID,918.116,VALID,0,VALID,93.3612,VALID,0.0509425,VALID,20.4052,VALID,149,VALID,0.481771,
2005-01-25, 01:25:00,VALID,918.101,VALID,0,VALID,93.4807,VALID,0.0679233,VALID,20.4251,VALID,165,VALID,0.512173,
2005-01-25, 01:26:00,VALID,918.084,VALID,0,VALID,93.9856,VALID,0.0339617,VALID,20.4477,VALID,166,VALID,0.544389,
2005-01-25, 01:27:00,VALID,918.069,VALID,0,VALID,94.2984,VALID,0.0169808,VALID,20.4515,VALID,166,VALID,0.316692,
2005-01-25, 01:28:00,VALID,918.054,VALID,0,VALID,94.5196,VALID,0.0169808,VALID,20.4415,VALID,166,VALID,0.113186,
2005-01-25, 01:29:00,VALID,918.033,VALID,0,VALID,94.6125,VALID,0,VALID,20.455,VALID,166,VALID,0.205382,
2005-01-25, 01:30:00,VALID,918.016,VALID,0,VALID,94.6671,VALID,0,VALID,20.4579,VALID,165,VALID,0.28032,
2005-01-25, 01:31:00,VALID,918.008,VALID,0,VALID,94.2272,VALID,0.0169808,VALID,20.4423,VALID,149,VALID,0.604833,
2005-01-25, 01:32:00,VALID,917.98,VALID,0,VALID,94.0288,VALID,0,VALID,20.4323,VALID,164,VALID,0.682227,
2005-01-25, 01:33:00,VALID,917.973,VALID,0,VALID,94.058,VALID,0.0169808,VALID,20.4127,VALID,143,VALID,0.462891,
2005-01-25, 01:34:00,VALID,917.954,VALID,0,VALID,94.0263,VALID,0.0849042,VALID,20.4127,VALID,135,VALID,0.373547,
2005-01-25, 01:35:00,VALID,917.93,VALID,0,VALID,93.7961,VALID,0.0509425,VALID,20.3968,VALID,122,VALID,0.341146,
2005-01-25, 01:36:00,VALID,917.893,VALID,0,VALID,93.8648,VALID,0,VALID,20.3933,VALID,121,VALID,0.214583,
2005-01-25, 01:37:00,VALID,917.869,VALID,0,VALID,93.6181,VALID,0.0339617,VALID,20.3836,VALID,110,VALID,0.405859,
2005-01-25, 01:38:00,VALID,917.85,VALID,0,VALID,93.3434,VALID,0.0339617,VALID,20.3864,VALID,89,VALID,0.50657,
2005-01-25, 01:39:00,VALID,917.827,VALID,0,VALID,93.1539,VALID,0.0679233,VALID,20.3936,VALID,122,VALID,0.600195,
2005-01-25, 01:40:00,VALID,917.802,VALID,0,VALID,93.2607,VALID,0.0509425,VALID,20.3866,VALID,102,VALID,0.481889,
2005-01-25, 01:41:00,VALID,917.78,VALID,0,VALID,93.4769,VALID,0.0339617,VALID,20.3866,VALID,111,VALID,0.486852,
2005-01-25, 01:42:00,VALID,917.761,VALID,0,VALID,93.6028,VALID,0.101885,VALID,20.3834,VALID,101,VALID,0.256098,
2005-01-25, 01:43:00,VALID,917.738,VALID,0,VALID,93.7923,VALID,0.0339617,VALID,20.374,VALID,97,VALID,0.736914,
2005-01-25, 01:44:00,VALID,917.72,VALID,0,VALID,94.0669,VALID,0.0339617,VALID,20.3578,VALID,87,VALID,0.685497,
2005-01-25, 01:45:00,VALID,917.717,VALID,0,VALID,94.2653,VALID,0.0849042,VALID,20.3414,VALID,94,VALID,0.692845,
2005-01-25, 01:46:00,VALID,917.722,VALID,0,VALID,94.3175,VALID,0.0679233,VALID,20.3054,VALID,112,VALID,0.544017,
2005-01-25, 01:47:00,VALID,917.696,VALID,0,VALID,94.465,VALID,0.0509425,VALID,20.2997,VALID,103,VALID,0.753348,
2005-01-25, 01:48:00,VALID,917.704,VALID,0,VALID,94.6366,VALID,0.0339617,VALID,20.2833,VALID,90,VALID,0.49564,
2005-01-25, 01:49:00,VALID,917.705,VALID,0,VALID,94.587,VALID,0.0679233,VALID,20.2604,VALID,102,VALID,0.936228,
2005-01-25, 01:50:00,VALID,917.722,VALID,0,VALID,94.526,VALID,0.0169808,VALID,20.2431,VALID,81,VALID,0.795785,
2005-01-25, 01:51:00,VALID,917.723,VALID,0,VALID,94.7218,VALID,-0.0169808,VALID,20.2363,VALID,83,VALID,0.587984,
2005-01-25, 01:52:00,VALID,917.735,VALID,0,VALID,94.8693,VALID,-0.0509425,VALID,20.2369,VALID,72,VALID,0.572129,
2005-01-25, 01:53:00,VALID,917.74,VALID,0,VALID,95.083,VALID,-0.0509425,VALID,20.2334,VALID,63,VALID,0.552989,
2005-01-25, 01:54:00,VALID,917.729,VALID,0,VALID,95.0868,VALID,-0.0169808,VALID,20.2165,VALID,64,VALID,0.534979,
2005-01-25, 01:55:00,VALID,917.735,VALID,0,VALID,95.0448,VALID,-0.0509425,VALID,20.2043,VALID,61,VALID,0.629092,
2005-01-25, 01:56:00,VALID,917.73,VALID,0,VALID,95.233,VALID,-0.0509425,VALID,20.1847,VALID,59,VALID,0.494851,
2005-01-25, 01:57:00,VALID,917.703,VALID,0,VALID,95.0321,VALID,-0.0169808,VALID,20.1653,VALID,77,VALID,0.658482,
2005-01-25, 01:58:00,VALID,917.698,VALID,0,VALID,95.1542,VALID,-0.0339617,VALID,20.1583,VALID,43,VALID,0.739281,
2005-01-25, 01:59:00,VALID,917.698,VALID,0,VALID,95.322,VALID,-0.0509425,VALID,20.1785,VALID,90,VALID,0.482292,
2005-01-25, 02:00:00,VALID,917.676,VALID,0,VALID,95.3805,VALID,-0.0339617,VALID,20.1655,VALID,82,VALID,0.332227,
2005-01-25, 02:01:00,VALID,917.68,VALID,0,VALID,95.6336,VALID,-0.0169808,VALID,20.1655,VALID,46,VALID,0.476042,
2005-01-25, 02:02:00,VALID,917.688,VALID,0,VALID,95.6628,VALID,-0.0849042,VALID,20.1529,VALID,46,VALID,0.295058,
2005-01-25, 02:03:00,VALID,917.685,VALID,0,VALID,95.7556,VALID,-0.0509425,VALID,20.1464,VALID,46,VALID,0.290128,
2005-01-25, 02:04:00,VALID,917.682,VALID,0,VALID,95.7137,VALID,-0.0849042,VALID,20.127,VALID,57,VALID,0.494731,
2005-01-25, 02:05:00,VALID,917.689,VALID,0,VALID,95.4746,VALID,-0.0169808,VALID,20.0813,VALID,72,VALID,0.467797,
2005-01-25, 02:06:00,VALID,917.668,VALID,0,VALID,95.4403,VALID,-0.0339617,VALID,20.0719,VALID,77,VALID,0.407393,
2005-01-25, 02:07:00,VALID,917.65,VALID,0,VALID,95.4657,VALID,-0.0169808,VALID,20.0617,VALID,109,VALID,0.648983,
2005-01-25, 02:08:00,VALID,917.621,VALID,0,VALID,95.3462,VALID,-0.0679233,VALID,20.0689,VALID,128,VALID,0.595274,
2005-01-25, 02:09:00,VALID,917.593,VALID,0,VALID,95.3207,VALID,-0.0169808,VALID,20.0587,VALID,144,VALID,0.845833,
2005-01-25, 02:10:00,VALID,917.554,VALID,0,VALID,95.144,VALID,-0.0339617,VALID,20.0781,VALID,146,VALID,0.865282,
2005-01-25, 02:11:00,VALID,917.519,VALID,0,VALID,94.6671,VALID,-0.0509425,VALID,20.0848,VALID,141,VALID,0.803234,
2005-01-25, 02:12:00,VALID,917.491,VALID,0,VALID,94.484,VALID,0,VALID,20.1111,VALID,147,VALID,0.670922,
2005-01-25, 02:13:00,VALID,917.464,VALID,0,VALID,94.4904,VALID,-0.0339617,VALID,20.1168,VALID,143,VALID,0.705412,
2005-01-25, 02:14:00,VALID,917.444,VALID,0,VALID,94.2564,VALID,-0.0339617,VALID,20.1402,VALID,137,VALID,0.694404,
2005-01-25, 02:15:00,VALID,917.424,VALID,0,VALID,94.3416,VALID,-0.0339617,VALID,20.1429,VALID,125,VALID,0.576172,
2005-01-25, 02:16:00,VALID,917.408,VALID,0,VALID,94.1115,VALID,-0.0679233,VALID,20.1432,VALID,118,VALID,0.78452,
2005-01-25, 02:17:00,VALID,917.396,VALID,0,VALID,93.9372,VALID,-0.0339617,VALID,20.1566,VALID,117,VALID,0.906622,
2005-01-25, 02:18:00,VALID,917.37,VALID,0,VALID,93.6956,VALID,-0.0679233,VALID,20.1827,VALID,115,VALID,0.86795,
2005-01-25, 02:19:00,VALID,917.357,VALID,0,VALID,93.3307,VALID,-0.0849042,VALID,20.1951,VALID,111,VALID,1.17387,
2005-01-25, 02:20:00,VALID,917.335,VALID,0,VALID,93.351,VALID,0,VALID,20.2267,VALID,120,VALID,0.928571,
2005-01-25, 02:21:00,VALID,917.322,VALID,0,VALID,93.098,VALID,0.0339617,VALID,20.255,VALID,111,VALID,1.13245,
2005-01-25, 02:22:00,VALID,917.313,VALID,0,VALID,92.7725,VALID,0.0339617,VALID,20.2778,VALID,100,VALID,1.29355,
2005-01-25, 02:23:00,VALID,917.297,VALID,0,VALID,92.7763,VALID,0.0169808,VALID,20.2937,VALID,109,VALID,0.982986,
2005-01-25, 02:24:00,VALID,917.298,VALID,0,VALID,92.906,VALID,0,VALID,20.3131,VALID,105,VALID,0.674543,
2005-01-25, 02:25:00,VALID,917.288,VALID,0,VALID,92.9988,VALID,0.0169808,VALID,20.3228,VALID,109,VALID,1.07598,
2005-01-25, 02:26:00,VALID,917.287,VALID,0,VALID,93.2073,VALID,0.0339617,VALID,20.3034,VALID,103,VALID,0.759301,
2005-01-25, 02:27:00,VALID,917.281,VALID,0,VALID,93.0815,VALID,0.0339617,VALID,20.3168,VALID,114,VALID,0.992932,
2005-01-25, 02:28:00,VALID,917.283,VALID,0,VALID,93.3459,VALID,0.0509425,VALID,20.2935,VALID,96,VALID,0.800959,
2005-01-25, 02:29:00,VALID,917.281,VALID,0,VALID,93.2887,VALID,0.0169808,VALID,20.2768,VALID,94,VALID,0.84048,
2005-01-25, 02:30:00,VALID,917.282,VALID,0,VALID,93.5481,VALID,0.0169808,VALID,20.2813,VALID,88,VALID,0.727431,
2005-01-25, 02:31:00,VALID,917.28,VALID,0,VALID,93.4502,VALID,0.0509425,VALID,20.2577,VALID,99,VALID,0.706032,
2005-01-25, 02:32:00,VALID,917.286,VALID,0,VALID,93.5469,VALID,0.0339617,VALID,20.248,VALID,88,VALID,0.670387,
2005-01-25, 02:33:00,VALID,917.271,VALID,0,VALID,93.7745,VALID,0.0339617,VALID,20.2579,VALID,72,VALID,0.619731,
2005-01-25, 02:34:00,VALID,917.269,VALID,0,VALID,93.4769,VALID,0,VALID,20.2477,VALID,65,VALID,0.601385,
2005-01-25, 02:35:00,VALID,917.247,VALID,0,VALID,93.3739,VALID,0.0849042,VALID,20.245,VALID,67,VALID,0.701126,
2005-01-25, 02:36:00,VALID,917.237,VALID,0,VALID,93.3434,VALID,0.0679233,VALID,20.2547,VALID,76,VALID,0.727307,
2005-01-25, 02:37:00,VALID,917.21,VALID,0,VALID,93.6168,VALID,0.0679233,VALID,20.255,VALID,76,VALID,0.577592,
2005-01-25, 02:38:00,VALID,917.195,VALID,0,VALID,93.7389,VALID,0.0339617,VALID,20.2286,VALID,76,VALID,0.492188,
2005-01-25, 02:39:00,VALID,917.179,VALID,0,VALID,93.5926,VALID,0.0509425,VALID,20.2261,VALID,76,VALID,0.581499,
2005-01-25, 02:40:00,VALID,917.172,VALID,0,VALID,93.5558,VALID,0.0339617,VALID,20.1998,VALID,76,VALID,0.484375,
2005-01-25, 02:41:00,VALID,917.177,VALID,0,VALID,93.4629,VALID,0.0169808,VALID,20.203,VALID,77,VALID,0.37391,
2005-01-25, 02:42:00,VALID,917.179,VALID,0,VALID,93.7198,VALID,0.0679233,VALID,20.2167,VALID,76,VALID,0.339311,
2005-01-25, 02:43:00,VALID,917.167,VALID,0,VALID,93.6944,VALID,0.0169808,VALID,20.2095,VALID,80,VALID,0.299083,
2005-01-25, 02:44:00,VALID,917.178,VALID,0,VALID,93.7592,VALID,0.0339617,VALID,20.2063,VALID,80,VALID,0.131138,
2005-01-25, 02:45:00,VALID,917.189,VALID,0,VALID,93.9449,VALID,0.0679233,VALID,20.216,VALID,80,VALID,0.379954,
2005-01-25, 02:46:00,VALID,917.203,VALID,0,VALID,93.8915,VALID,0.0679233,VALID,20.1995,VALID,80,VALID,0.123598,
2005-01-25, 02:47:00,VALID,917.221,VALID,0,VALID,93.8838,VALID,0.0339617,VALID,20.1871,VALID,80,VALID,0.190662,
2005-01-25, 02:48:00,VALID,917.237,VALID,0,VALID,93.6117,VALID,0.0169808,VALID,20.1842,VALID,81,VALID,0.281783,
2005-01-25, 02:49:00,VALID,917.258,VALID,0,VALID,93.5024,VALID,0.0509425,VALID,20.1772,VALID,83,VALID,0.214571,
2005-01-25, 02:50:00,VALID,917.28,VALID,0,VALID,93.8304,VALID,0.0169808,VALID,20.207,VALID,83,VALID,0,
2005-01-25, 02:51:00,VALID,917.29,VALID,0,VALID,93.7185,VALID,-0.0169808,VALID,20.2127,VALID,83,VALID,0,
2005-01-25, 02:52:00,VALID,917.285,VALID,0,VALID,93.4718,VALID,-0.0169808,VALID,20.2264,VALID,83,VALID,0.137536,
2005-01-25, 02:53:00,VALID,917.276,VALID,0,VALID,93.5507,VALID,-0.0169808,VALID,20.2324,VALID,83,VALID,0.0282738,
2005-01-25, 02:54:00,VALID,917.266,VALID,0,VALID,93.6702,VALID,0.0169808,VALID,20.252,VALID,83,VALID,0.0480183,
2005-01-25, 02:55:00,VALID,917.27,VALID,0,VALID,93.5176,VALID,0,VALID,20.2619,VALID,83,VALID,0.0199033,
2005-01-25, 02:56:00,VALID,917.247,VALID,0,VALID,93.5952,VALID,0,VALID,20.2657,VALID,83,VALID,0.183061,
2005-01-25, 02:57:00,VALID,917.234,VALID,0,VALID,93.1857,VALID,0,VALID,20.2619,VALID,85,VALID,0.366257,
2005-01-25, 02:58:00,VALID,917.228,VALID,0,VALID,93.009,VALID,0,VALID,20.2453,VALID,105,VALID,0.573361,
2005-01-25, 02:59:00,VALID,917.212,VALID,0,VALID,92.7979,VALID,0,VALID,20.2517,VALID,142,VALID,0.515262,
2005-01-25, 03:00:00,VALID,917.198,VALID,0,VALID,93.332,VALID,0,VALID,20.2719,VALID,144,VALID,0.408458,
2005-01-25, 03:01:00,VALID,917.193,VALID,0,VALID,94.0174,VALID,0,VALID,20.2875,VALID,146,VALID,0.470749,
2005-01-25, 03:02:00,VALID,917.172,VALID,0,VALID,93.6549,VALID,0,VALID,20.2617,VALID,172,VALID,0.650112,
2005-01-25, 03:03:00,VALID,917.159,VALID,0,VALID,93.3053,VALID,0,VALID,20.2552,VALID,181,VALID,0.640039,
2005-01-25, 03:04:00,VALID,917.147,VALID,0,VALID,93.3727,VALID,0.0169808,VALID,20.2552,VALID,176,VALID,0.620999,
2005-01-25, 03:05:00,VALID,917.134,VALID,0,VALID,93.5748,VALID,0,VALID,20.2396,VALID,159,VALID,0.606445,
2005-01-25, 03:06:00,VALID,917.134,VALID,0,VALID,93.1845,VALID,-0.0169808,VALID,20.2301,VALID,168,VALID,0.962713,
2005-01-25, 03:07:00,VALID,917.124,VALID,0,VALID,93.2671,VALID,0,VALID,20.2108,VALID,165,VALID,0.580221,
2005-01-25, 03:08:00,VALID,917.111,VALID,0,VALID,93.7541,VALID,-0.0169808,VALID,20.2003,VALID,156,VALID,0.416667,
2005-01-25, 03:09:00,VALID,917.099,VALID,0,VALID,93.6143,VALID,-0.0169808,VALID,20.1849,VALID,154,VALID,1.10828,
2005-01-25, 03:10:00,VALID,917.083,VALID,0,VALID,93.749,VALID,0,VALID,20.1618,VALID,165,VALID,0.693598,
2005-01-25, 03:11:00,VALID,917.067,VALID,0,VALID,93.9156,VALID,-0.0169808,VALID,20.1422,VALID,139,VALID,0.38244,
2005-01-25, 03:12:00,VALID,917.058,VALID,0,VALID,93.8559,VALID,0,VALID,20.1325,VALID,164,VALID,0.957564,
2005-01-25, 03:13:00,VALID,917.042,VALID,0,VALID,93.7592,VALID,0,VALID,20.1357,VALID,169,VALID,1.05529,
2005-01-25, 03:14:00,VALID,917.027,VALID,0,VALID,93.7109,VALID,0,VALID,20.1263,VALID,169,VALID,1.25856,
2005-01-25, 03:15:00,VALID,917.021,VALID,0,VALID,93.7732,VALID,-0.0169808,VALID,20.1163,VALID,170,VALID,0.999442,
2005-01-25, 03:16:00,VALID,917.013,VALID,0,VALID,93.8342,VALID,0,VALID,20.1161,VALID,168,VALID,0.758789,
2005-01-25, 03:17:00,VALID,917.005,VALID,0,VALID,93.7312,VALID,0,VALID,20.13,VALID,163,VALID,0.637429,
2005-01-25, 03:18:00,VALID,917.016,VALID,0,VALID,93.3625,VALID,0,VALID,20.1362,VALID,152,VALID,1.0934,
2005-01-25, 03:19:00,VALID,917.01,VALID,0,VALID,92.9657,VALID,0,VALID,20.1389,VALID,144,VALID,1.08929,
2005-01-25, 03:20:00,VALID,916.993,VALID,0,VALID,92.4558,VALID,0,VALID,20.1849,VALID,146,VALID,1.47212,
2005-01-25, 03:21:00,VALID,916.974,VALID,0,VALID,92.3325,VALID,0,VALID,20.2261,VALID,149,VALID,1.006,
2005-01-25, 03:22:00,VALID,916.958,VALID,0,VALID,92.3414,VALID,0,VALID,20.2652,VALID,144,VALID,1.01836,
2005-01-25, 03:23:00,VALID,916.932,VALID,0,VALID,92.101,VALID,-0.0339617,VALID,20.2816,VALID,134,VALID,1.26639,
2005-01-25, 03:24:00,VALID,916.916,VALID,0,VALID,92.26,VALID,-0.0169808,VALID,20.2816,VALID,129,VALID,1.00911,
2005-01-25, 03:25:00,VALID,916.907,VALID,0,VALID,92.2511,VALID,0,VALID,20.2714,VALID,139,VALID,1.12865,
2005-01-25, 03:26:00,VALID,916.903,VALID,0,VALID,92.2168,VALID,-0.0169808,VALID,20.2746,VALID,129,VALID,0.921875,
2005-01-25, 03:27:00,VALID,916.891,VALID,0,VALID,92.0489,VALID,0,VALID,20.2783,VALID,130,VALID,1.36128,
2005-01-25, 03:28:00,VALID,916.894,VALID,0,VALID,92.04,VALID,0,VALID,20.2676,VALID,133,VALID,0.832698,
2005-01-25, 03:29:00,VALID,916.894,VALID,0,VALID,91.8556,VALID,-0.0169808,VALID,20.294,VALID,132,VALID,1.45494,
2005-01-25, 03:30:00,VALID,916.885,VALID,0,VALID,91.8035,VALID,0,VALID,20.3039,VALID,123,VALID,1.8016,
2005-01-25, 03:31:00,VALID,916.885,VALID,0,VALID,91.8187,VALID,0,VALID,20.3163,VALID,126,VALID,1.55288,
2005-01-25, 03:32:00,VALID,916.874,VALID,0,VALID,92.0667,VALID,0,VALID,20.3163,VALID,106,VALID,1.11594,
2005-01-25, 03:33:00,VALID,916.868,VALID,0,VALID,92.1723,VALID,0,VALID,20.3029,VALID,112,VALID,1.05664,